KA1JKB Weather Reports


time (UTC)temp
C
wind
direction
speed
KPH
gust
KPH
rain 1hr
cm
rain 24hr
cm
rain mn
cm
humidity
%
barometer
mb
20260903043343 25 118 0.0 0.0 0.00 0.00 0.00 95 1011.8
20260903042842 25 135 0.0 0.0 0.00 0.00 0.00 94 1011.5
20260903042337 25 119 1.6 1.6 0.00 0.00 0.00 94 1011.7
20260903041833 25 147 1.6 3.2 0.00 0.00 0.00 94 1011.6
20260903041329 25 131 0.0 9.7 0.00 0.00 0.00 94 1011.6
20260903040825 25 134 0.0 1.6 0.00 0.00 0.00 95 1011.4
20260903040323 25 166 0.0 1.6 0.00 0.00 0.00 95 1011.3
20260903035820 25 152 1.6 1.6 0.00 0.00 0.00 95 1011.4
20260903035315 25 144 0.0 1.6 0.00 0.00 0.00 95 1011.3
20260903034810 25 146 1.6 1.6 0.00 0.00 0.00 95 1011.4
20260903034305 25 156 0.0 3.2 0.00 0.00 0.00 95 1011.2
20260903033800 25 143 0.0 3.2 0.00 0.00 0.00 95 1010.8
20260903033250 25 135 0.0 1.6 0.00 0.00 0.00 95 1010.9
20260903032749 25 220 1.6 6.4 0.00 0.00 0.00 95 1010.6
20260903032246 25 190 1.6 1.6 0.00 0.00 0.00 95 1010.6
20260903031742 25 148 1.6 1.6 0.00 0.00 0.00 95 1011.0
20260903031240 25 139 0.0 1.6 0.00 0.00 0.00 96 1010.7
20260903030737 24 143 1.6 1.6 0.00 0.00 0.00 97 1011.0
20260903030232 24 141 0.0 1.6 0.00 0.00 0.00 97 1010.7
20260903025728 24 150 0.0 0.0 0.00 0.00 0.00 97 1010.5
20260903025223 24 149 0.0 0.0 0.00 0.00 0.00 97 1010.8
20260903024723 23 146 0.0 0.0 0.00 0.00 0.00 97 1010.9
20260903024222 23 146 0.0 0.0 0.00 0.00 0.00 97 1010.9
20260903023718 23 146 0.0 0.0 0.00 0.00 0.00 97 1010.8
20260903023214 23 147 0.0 0.0 0.00 0.00 0.00 97 1010.7
20260903022713 23 147 0.0 0.0 0.00 0.00 0.00 97 1010.6
20260903022213 23 146 0.0 0.0 0.00 0.00 0.00 97 1010.7
20260903021713 23 146 0.0 0.0 0.00 0.00 0.00 97 1011.3
20260903021208 23 146 0.0 0.0 0.00 0.00 0.00 96 1011.3
20260903020702 23 146 0.0 0.0 0.00 0.00 0.00 95 1011.6
20260903020202 23 146 0.0 0.0 0.00 0.00 0.00 95 1011.4
20260903015658 23 146 0.0 0.0 0.00 0.00 0.00 94 1011.4
20260903015153 23 146 0.0 0.0 0.00 0.00 0.00 94 1011.5
20260903014648 24 146 0.0 0.0 0.00 0.00 0.00 93 1011.4
20260903014147 24 146 0.0 0.0 0.00 0.00 0.00 93 1011.2
20260903013643 25 146 0.0 0.0 0.00 0.00 0.00 93 1011.2
20260903013142 25 146 0.0 0.0 0.00 0.00 0.00 92 1011.3
20260903012641 25 146 0.0 0.0 0.00 0.00 0.00 92 1011.5
20260903012140 25 146 0.0 0.0 0.00 0.00 0.00 92 1011.3
20260903011635 25 146 0.0 0.0 0.00 0.00 0.00 91 1011.3
20260903011135 25 146 0.0 0.0 0.00 0.00 0.00 92 1011.2
20260903010630 25 146 0.0 1.6 0.00 0.00 0.00 92 1011.3
20260903010129 25 145 0.0 0.0 0.00 0.00 0.00 92 1011.0
20260903005624 25 145 0.0 1.6 0.00 0.00 0.00 91 1011.2
20260903005119 25 143 0.0 1.6 0.00 0.00 0.00 91 1011.0
20260903004619 25 144 0.0 1.6 0.00 0.00 0.00 90 1010.8
20260903004114 26 143 0.0 0.0 0.00 0.00 0.00 89 1010.9
20260903003610 26 143 0.0 0.0 0.00 0.00 0.00 88 1010.7
20260903003105 26 143 0.0 0.0 0.00 0.00 0.00 87 1010.8
20260903002600 26 145 0.0 0.0 0.00 0.00 0.00 87 1010.9
20260903002054 26 144 0.0 1.6 0.00 0.00 0.00 86 1010.8
20260903001549 27 146 0.0 1.6 0.00 0.00 0.00 85 1010.7
20260903001049 27 149 0.0 1.6 0.00 0.00 0.00 84 1010.4
20260903000544 27 143 0.0 1.6 0.00 0.00 0.00 83 1010.6
20260903000038 27 140 0.0 0.0 0.00 0.00 0.00 82 1010.7
20260902235537 28 141 0.0 0.0 0.00 0.00 0.00 82 1010.6
20260902235033 28 143 0.0 1.6 0.00 0.00 0.00 81 1010.6
20260902234532 28 137 0.0 0.0 0.00 0.00 0.00 80 1010.6
20260902234031 28 140 0.0 0.0 0.00 0.00 0.00 79 1010.7
20260902233526 29 146 0.0 1.6 0.00 0.00 0.00 77 1010.7
20260902233020 29 140 0.0 1.6 0.00 0.00 0.00 76 1010.6
20260902232520 30 137 0.0 1.6 0.00 0.00 0.00 75 1010.8
20260902232014 30 159 1.6 3.2 0.00 0.00 0.00 74 1010.8
20260902231509 30 152 1.6 4.8 0.00 0.00 0.00 72 1010.7
20260902231003 31 166 1.6 4.8 0.00 0.00 0.00 71 1010.5
20260902230503 31 151 0.0 3.2 0.00 0.00 0.00 71 1010.7
20260902230003 31 147 1.6 1.6 0.00 0.00 0.00 70 1010.5
20260902225458 32 160 1.6 4.8 0.00 0.00 0.00 68 1010.7
20260902224958 32 145 0.0 3.2 0.00 0.00 0.00 68 1010.7
20260902224457 32 164 1.6 3.2 0.00 0.00 0.00 68 1010.6
20260902223954 31 141 0.0 4.8 0.00 0.00 0.00 67 1010.6
20260902223449 32 145 1.6 4.8 0.00 0.00 0.00 67 1010.6
20260902222948 32 252 1.6 3.2 0.00 0.00 0.00 65 1010.6
20260902222447 32 169 1.6 6.4 0.00 0.00 0.00 65 1010.5
20260902221946 32 210 6.4 6.4 0.00 0.00 0.00 65 1010.6
20260902221445 32 96 1.6 4.8 0.00 0.00 0.00 64 1010.6
20260902220942 32 159 1.6 4.8 0.00 0.00 0.00 65 1010.6
20260902220441 32 252 4.8 11.3 0.00 0.00 0.00 65 1010.8
20260902215936 32 175 1.6 11.3 0.00 0.00 0.00 66 1010.6
20260902215432 32 219 4.8 9.7 0.00 0.00 0.00 64 1010.4
20260902214928 32 198 3.2 6.4 0.00 0.00 0.00 66 1010.6
20260902214427 32 172 1.6 3.2 0.00 0.00 0.00 67 1010.5
20260902213926 32 186 3.2 6.4 0.00 0.00 0.00 65 1010.7
20260902213423 32 200 6.4 9.7 0.00 0.00 0.00 63 1010.7
20260902212921 32 141 1.6 4.8 0.00 0.00 0.00 65 1011.0
20260902212418 32 172 3.2 6.4 0.00 0.00 0.00 65 1010.7
20260902211914 32 169 3.2 9.7 0.00 0.00 0.00 65 1010.8
20260902211410 32 219 4.8 6.4 0.00 0.00 0.00 64 1011.2
20260902210905 32 176 1.6 12.9 0.00 0.00 0.00 66 1011.0
20260902210404 32 210 3.2 9.7 0.00 0.00 0.00 65 1011.0
20260902205903 32 325 3.2 9.7 0.00 0.00 0.00 64 1011.3
20260902205357 33 205 6.4 9.7 0.00 0.00 0.00 64 1011.2
20260902204853 33 224 4.8 6.4 0.00 0.00 0.00 63 1011.2
20260902204353 33 186 4.8 11.3 0.00 0.00 0.00 63 1011.3
20260902203848 33 186 3.2 4.8 0.00 0.00 0.00 64 1011.5
20260902203344 32 277 3.2 11.3 0.00 0.00 0.00 64 1011.5
20260902202838 32 290 3.2 6.4 0.00 0.00 0.00 65 1011.7
20260902202334 33 163 3.2 11.3 0.00 0.00 0.00 65 1011.7
20260902201830 33 250 6.4 9.7 0.00 0.00 0.00 62 1011.8
20260902201330 33 260 6.4 9.7 0.00 0.00 0.00 63 1011.9
20260902200825 33 251 3.2 4.8 0.00 0.00 0.00 64 1011.9
20260902200320 33 148 3.2 9.7 0.00 0.00 0.00 66 1011.9
20260902195816 33 199 4.8 6.4 0.00 0.00 0.00 66 1012.0
20260902195315 32 227 6.4 11.3 0.00 0.00 0.00 64 1012.0
20260902194810 32 204 4.8 6.4 0.00 0.00 0.00 64 1012.0
20260902194304 32 149 3.2 6.4 0.00 0.00 0.00 65 1012.0
20260902193800 32 180 3.2 4.8 0.00 0.00 0.00 68 1012.2
20260902193256 33 160 1.6 11.3 0.00 0.00 0.00 64 1012.1
20260902192754 33 192 3.2 6.4 0.00 0.00 0.00 64 1012.0
20260902192254 33 273 4.8 9.7 0.00 0.00 0.00 63 1012.2
20260902191753 33 151 3.2 9.7 0.00 0.00 0.00 65 1012.2
20260902191248 33 200 4.8 6.4 0.00 0.00 0.00 64 1012.3
20260902190744 33 199 4.8 9.7 0.00 0.00 0.00 65 1012.5
20260902190243 33 186 1.6 9.7 0.00 0.00 0.00 65 1012.5
20260902185739 33 259 3.2 9.7 0.00 0.00 0.00 65 1012.5
20260902185235 32 155 3.2 6.4 0.00 0.00 0.00 66 1012.3
20260902184730 32 137 1.6 6.4 0.00 0.00 0.00 66 1012.6
20260902184226 32 219 4.8 14.5 0.00 0.00 0.00 64 1012.5
20260902183721 33 185 3.2 6.4 0.00 0.00 0.00 64 1012.4
20260902183217 33 235 6.4 11.3 0.00 0.00 0.00 67 1012.4
20260902182713 32 190 4.8 6.4 0.00 0.00 0.00 68 1012.4
20260902182210 32 158 1.6 4.8 0.00 0.00 0.00 71 1012.5
20260902181706 32 129 3.2 11.3 0.00 0.00 0.00 71 1012.7
20260902181206 32 142 1.6 4.8 0.00 0.00 0.00 70 1012.8
20260902180706 32 273 3.2 6.4 0.00 0.00 0.00 69 1012.6
20260902180201 32 206 4.8 6.4 0.00 0.00 0.00 68 1012.9
20260902175701 32 243 3.2 4.8 0.00 0.00 0.00 69 1012.9
20260902175157 32 103 3.2 4.8 0.00 0.00 0.00 69 1012.7
20260902174654 32 289 3.2 4.8 0.00 0.00 0.00 68 1013.0
20260902174149 32 148 3.2 6.4 0.00 0.00 0.00 69 1013.1
20260902173644 32 216 4.8 6.4 0.00 0.00 0.00 70 1012.9
20260902173139 32 240 3.2 11.3 0.00 0.00 0.00 71 1013.1
20260902172639 32 289 3.2 6.4 0.00 0.00 0.00 71 1013.1
20260902172138 32 177 3.2 4.8 0.00 0.00 0.00 69 1013.1
20260902171633 32 266 3.2 4.8 0.00 0.00 0.00 69 1013.1
20260902171129 32 158 1.6 4.8 0.00 0.00 0.00 73 1013.4
20260902170625 32 159 1.6 4.8 0.00 0.00 0.00 70 1013.2
20260902170120 32 205 3.2 4.8 0.00 0.00 0.00 71 1013.2
20260902165621 31 200 3.2 9.7 0.00 0.00 0.00 73 1013.3
20260902165120 31 251 4.8 6.4 0.00 0.00 0.00 73 1013.2
20260902164616 31 273 6.4 12.9 0.00 0.00 0.00 73 1013.3
20260902164114 31 134 1.6 3.2 0.00 0.00 0.00 74 1013.6
20260902163610 31 155 1.6 3.2 0.00 0.00 0.00 72 1013.6
20260902163108 32 198 6.4 9.7 0.00 0.00 0.00 70 1013.5
20260902162608 32 177 3.2 9.7 0.00 0.00 0.00 73 1013.4
20260902162103 31 143 1.6 6.4 0.00 0.00 0.00 74 1013.3
20260902161558 31 155 3.2 6.4 0.00 0.00 0.00 72 1013.3
20260902161054 31 161 1.6 1.6 0.00 0.00 0.00 72 1013.4
20260902160549 31 185 1.6 6.4 0.00 0.00 0.00 74 1013.5
20260902160045 31 135 4.8 4.8 0.00 0.00 0.00 73 1013.4
20260902155538 31 293 4.8 9.7 0.00 0.00 0.00 72 1013.4
20260902155037 31 157 1.6 3.2 0.00 0.00 0.00 76 1013.4
20260902154532 30 199 1.6 4.8 0.00 0.00 0.00 77 1013.4
20260902154027 30 232 3.2 9.7 0.00 0.00 0.00 78 1013.5
20260902153525 30 286 4.8 9.7 0.00 0.00 0.00 77 1013.6
20260902153021 30 260 1.6 3.2 0.00 0.00 0.00 76 1013.6
20260902152518 31 219 3.2 6.4 0.00 0.00 0.00 77 1013.6
20260902152013 30 160 3.2 6.4 0.00 0.00 0.00 76 1013.6
20260902151508 30 226 8.0 9.7 0.00 0.00 0.00 75 1013.5
20260902151007 30 158 3.2 6.4 0.00 0.00 0.00 77 1013.6
20260902150503 30 135 3.2 4.8 0.00 0.00 0.00 77 1013.5
20260902145958 30 155 1.6 3.2 0.00 0.00 0.00 79 1013.4
20260902145453 30 177 3.2 6.4 0.00 0.00 0.00 78 1013.4
20260902144953 30 153 3.2 4.8 0.00 0.00 0.00 79 1013.4
20260902144450 30 215 3.2 6.4 0.00 0.00 0.00 79 1013.4
20260902143950 30 179 1.6 4.8 0.00 0.00 0.00 79 1013.3
20260902143445 29 165 1.6 4.8 0.00 0.00 0.00 81 1013.4
20260902142940 29 288 4.8 6.4 0.00 0.00 0.00 79 1013.3
20260902142436 28 130 4.8 4.8 0.00 0.00 0.00 81 1013.3
20260902141931 28 300 4.8 9.7 0.00 0.00 0.00 79 1013.1
20260902141426 28 196 3.2 6.4 0.00 0.00 0.00 81 1013.1
20260902140926 28 193 4.8 9.7 0.00 0.00 0.00 82 1013.2
20260902140422 28 163 3.2 4.8 0.00 0.00 0.00 83 1013.3
20260902135921 27 264 4.8 9.7 0.00 0.00 0.00 83 1013.3
20260902135417 27 129 3.2 4.8 0.00 0.00 0.00 85 1013.3
20260902134916 27 235 3.2 6.4 0.00 0.00 0.00 84 1013.1
20260902134412 27 189 3.2 6.4 0.00 0.00 0.00 86 1013.2
20260902133907 27 250 1.6 3.2 0.00 0.00 0.00 88 1013.3
20260902133407 27 138 1.6 4.8 0.00 0.00 0.00 89 1013.2
20260902132902 26 287 3.2 4.8 0.00 0.00 0.00 89 1013.2
20260902132357 26 207 4.8 4.8 0.00 0.00 0.00 89 1013.2
20260902131852 26 256 4.8 4.8 0.00 0.00 0.00 90 1013.2
20260902131349 26 138 1.6 4.8 0.00 0.00 0.00 91 1013.3
20260902130848 26 175 1.6 3.2 0.00 0.00 0.00 92 1013.3
20260902130344 26 153 1.6 3.2 0.00 0.00 0.00 93 1013.4
20260902125838 25 112 1.6 3.2 0.00 0.00 0.00 93 1013.4
20260902125335 25 186 3.2 6.4 0.00 0.00 0.00 94 1013.5
20260902124831 25 146 1.6 4.8 0.00 0.00 0.00 95 1013.4
20260902124326 25 138 0.0 1.6 0.00 0.00 0.00 97 1013.3
20260902123821 24 162 3.2 3.2 0.00 0.00 0.00 98 1013.3
20260902123318 24 145 0.0 3.2 0.00 0.00 0.00 99 1013.3
20260902122816 23 220 0.0 3.2 0.00 0.00 0.00 99 1013.3
20260902122312 23 134 0.0 0.0 0.00 0.00 0.00 99 1013.2
20260902121812 23 175 0.0 0.0 0.00 0.00 0.00 99 1013.2
20260902121307 23 135 0.0 0.0 0.00 0.00 0.00 99 1013.1
20260902120802 23 173 0.0 0.0 0.00 0.00 0.00 99 1013.3
20260902120259 22 163 0.0 0.0 0.00 0.00 0.00 99 1013.2
20260902115753 22 142 0.0 0.0 0.00 0.00 0.00 99 1013.4
20260902115250 22 135 0.0 0.0 0.00 0.00 0.00 99 1013.2
20260902114746 21 127 0.0 0.0 0.00 0.00 0.00 99 1013.3
20260902114242 21 133 0.0 0.0 0.00 0.00 0.00 99 1013.1
20260902113741 21 130 0.0 0.0 0.00 0.00 0.00 99 1013.2
20260902113237 21 134 0.0 0.0 0.00 0.00 0.00 99 1013.0
20260902112736 22 148 0.0 0.0 0.00 0.00 0.00 99 1013.1
20260902112234 22 142 0.0 0.0 0.00 0.00 0.00 99 1013.1
20260902111729 22 145 0.0 0.0 0.00 0.00 0.00 99 1013.1
20260902111225 22 135 0.0 0.0 0.00 0.00 0.00 99 1013.2
20260902110720 22 149 0.0 0.0 0.00 0.00 0.00 99 1013.5
20260902110216 22 110 0.0 0.0 0.00 0.00 0.00 99 1013.3
20260902105715 22 147 0.0 0.0 0.00 0.00 0.00 99 1013.6
20260902105211 21 183 0.0 1.6 0.00 0.00 0.00 99 1013.6
20260902104706 21 136 0.0 1.6 0.00 0.00 0.00 99 1013.6
20260902104202 22 143 0.0 1.6 0.00 0.00 0.00 99 1013.4
20260902103701 22 141 0.0 1.6 0.00 0.00 0.00 99 1013.5
20260902103156 22 141 0.0 1.6 0.00 0.00 0.00 99 1013.4
20260902102652 22 142 0.0 1.6 0.00 0.00 0.00 99 1013.6
20260902102149 22 154 1.6 1.6 0.00 0.00 0.00 99 1013.4
20260902101644 22 149 0.0 1.6 0.00 0.00 0.00 99 1013.2
20260902101144 21 144 0.0 1.6 0.00 0.00 0.00 99 1013.3
20260902100639 21 140 0.0 1.6 0.00 0.00 0.00 99 1013.3
20260902100133 20 135 0.0 0.0 0.00 0.00 0.00 99 1013.1
20260902095632 20 135 0.0 0.0 0.00 0.00 0.00 99 1013.1
20260902095132 21 135 0.0 0.0 0.00 0.00 0.00 99 1013.1
20260902094627 21 135 0.0 0.0 0.00 0.00 0.00 99 1012.9
20260902094124 21 135 0.0 0.0 0.00 0.00 0.00 99 1012.9
20260902093623 21 135 0.0 0.0 0.00 0.00 0.00 99 1013.0
20260902093119 21 135 0.0 0.0 0.00 0.00 0.00 99 1013.0
20260902092618 21 135 0.0 0.0 0.00 0.00 0.00 99 1012.9
20260902092114 21 135 0.0 0.0 0.00 0.00 0.00 99 1013.0
20260902091609 21 135 0.0 0.0 0.00 0.00 0.00 99 1012.8
20260902091105 21 135 0.0 0.0 0.00 0.00 0.00 99 1012.7
20260902090600 22 135 0.0 0.0 0.00 0.00 0.00 99 1012.7
20260902090059 22 135 0.0 0.0 0.00 0.00 0.00 99 1012.8
20260902085600 22 131 0.0 0.0 0.00 0.00 0.00 99 1012.5
20260902085054 22 132 0.0 0.0 0.00 0.00 0.00 99 1012.6
20260902084551 22 131 0.0 0.0 0.00 0.00 0.00 99 1012.5
20260902084047 23 132 0.0 0.0 0.00 0.00 0.00 99 1012.6
20260902083542 23 143 0.0 0.0 0.00 0.00 0.00 99 1012.6
20260902083042 23 217 0.0 1.6 0.00 0.00 0.00 99 1012.7
20260902082537 23 145 0.0 1.6 0.00 0.00 0.00 99 1012.7
20260902082034 23 135 0.0 1.6 0.00 0.00 0.00 99 1012.7
20260902081530 23 150 0.0 1.6 0.00 0.00 0.00 99 1012.6
20260902081030 23 144 1.6 1.6 0.00 0.00 0.00 99 1012.5
20260902080525 23 146 0.0 0.0 0.00 0.00 0.00 99 1012.5
20260902080022 23 148 0.0 1.6 0.00 0.00 0.00 99 1012.5
20260902075516 23 136 0.0 0.0 0.00 0.00 0.00 99 1012.6
20260902075012 23 139 0.0 0.0 0.00 0.00 0.00 99 1012.7
20260902074507 23 140 0.0 0.0 0.00 0.00 0.00 99 1012.8
20260902074007 23 140 0.0 0.0 0.00 0.00 0.00 99 1012.8
20260902073503 23 130 0.0 1.6 0.00 0.00 0.00 99 1012.7
20260902072959 23 136 0.0 0.0 0.00 0.00 0.00 99 1012.7
20260902072455 23 146 1.6 1.6 0.00 0.00 0.00 99 1012.6
20260902071951 23 142 0.0 0.0 0.00 0.00 0.00 99 1012.6
20260902071450 23 153 0.0 1.6 0.00 0.00 0.00 99 1012.5
20260902070947 23 135 0.0 1.6 0.00 0.00 0.00 99 1012.5
20260902070442 23 163 0.0 0.0 0.00 0.00 0.00 99 1012.3
20260902065941 22 135 0.0 1.6 0.00 0.00 0.00 99 1012.4
20260902065437 22 137 0.0 0.0 0.00 0.00 0.00 99 1012.5
20260902064937 22 134 0.0 1.6 0.00 0.00 0.00 99 1012.5
20260902064433 22 145 0.0 1.6 0.00 0.00 0.00 99 1012.4
20260902063928 22 136 0.0 1.6 0.00 0.00 0.00 99 1012.2
20260902063428 22 147 0.0 1.6 0.00 0.00 0.00 99 1012.5
20260902062923 22 138 0.0 1.6 0.00 0.00 0.00 99 1012.4
20260902062422 21 137 0.0 0.0 0.00 0.00 0.00 99 1012.5
20260902061917 21 136 0.0 0.0 0.00 0.00 0.00 99 1012.4
20260902061412 21 126 0.0 0.0 0.00 0.00 0.00 99 1012.7
20260902060908 21 126 0.0 0.0 0.00 0.00 0.00 99 1012.8
20260902060404 21 126 0.0 0.0 0.00 0.00 0.00 99 1012.7
20260902055900 21 126 0.0 0.0 0.00 0.00 0.00 99 1012.8
20260902055355 21 128 0.0 0.0 0.00 0.00 0.00 99 1012.8
20260902054851 21 126 0.0 0.0 0.00 0.00 0.00 99 1012.8
20260902054346 21 125 0.0 0.0 0.00 0.00 0.00 99 1012.6
20260902053841 21 127 0.0 0.0 0.00 0.00 0.00 99 1012.8
20260902053336 21 137 0.0 0.0 0.00 0.00 0.00 99 1012.9
20260902052835 21 137 0.0 0.0 0.00 0.00 0.00 99 1013.1
20260902052332 20 137 0.0 0.0 0.00 0.00 0.00 99 1013.0
20260902051832 20 138 0.0 0.0 0.00 0.00 0.00 99 1013.0
20260902051332 21 138 0.0 0.0 0.00 0.00 0.00 99 1013.1
20260902050831 21 138 0.0 0.0 0.00 0.00 0.00 99 1013.2
20260902050331 21 138 0.0 0.0 0.00 0.00 0.00 99 1012.9
20260902045826 21 138 0.0 0.0 0.00 0.00 0.00 99 1013.1
20260902045322 21 137 0.0 0.0 0.00 0.00 0.00 99 1012.9
20260902044818 21 137 0.0 0.0 0.00 0.00 0.00 99 1013.0
20260902044314 21 137 0.0 0.0 0.00 0.00 0.00 99 1013.0
20260902043813 21 137 0.0 0.0 0.00 0.00 0.00 99 1012.8